SCP
0 0 1 0 0 0 0 -0 -0 -0 -0 -0 -0 0 0 0 0 0 -0 -0 0 0 0 0 0 0 0 -0 0 0 0 -0 -0 -0 0 0 0 -0 -0 -0 -0 -0 -0 -0 -0 0 0 -0 0
0 1 1 0 0 0 0 0 0 -0 -0 0 -0 -0 -0 0 0 -0 0 0 0 0 0 0 0 -0 -0 -0 0 0 0 -0 -0 -0 0 0 0 -0 -0 -0 -0 -0 -0 -0 -0 0 0 -0 -0
1 1 0 0 0 -0 -0 0 0 0 0 0 0 -0 0 -0 -0 -0 0 -0 0 0 0 0 -0 0 -0 0 -0 0 -0 -0 -0 -0 -0 -0 -0 -0 0 -0 -0 0 0 0 0 0 0 0 0
0 1 1 0 0 0 0 0 0 0 0 0 0 0 -0 0 0 0 0 -0 -0 -0 0 0 -0 -0 -0 0 0 -0 -0 -0 -0 -0 -0 -0 -0 -0 0 0 -0 0 0 0 0 0 0 0 0
0 1 0 0 0 0 0 0 0 0 0 0 -0 -0 -0 -0 0 -0 -0 0 0 0 0 0 0 0 0 0 0 0 0 0 0 0 -0 -0 -0 0 0 0 0 0 0 0 0 0 0 0 0
0 1 0 0 0 0 0 0 0 0 0 0 0 -0 -0 -0 -0 -0 -0 0 0 0 0 0 -0 -0 0 0 0 -0 0 -0 0 -0 0 -0 -0 -0 0 0 0 0 0 -0 0 0 0 -0 -0
0 0 0 0 0 0 0 0 0 0 0 0 0 0 -0 -0 -0 -0 -0 0 0 0 0 0 0 0 0 0 0 -0 -0 -0 -0 -0 -0 0 -0 -0 -0 0 0 0 0 0 -0 -0 0 0 -0
1 0 0 0 0 0 0 0 0 0 0 0 0 0 -0 -0 -0 -0 -0 0 0 0 0 0 0 0 0 -0 -0 -0 -0 -0 -0 -0 -0 -0 0 -0 0 -0 -0 0 0 0 0 0 -0 -0 0
0 0 0 0 0 0 0 0 0 0 0 0 0 0 -0 0 0 -0 -0 0 0 0 0 0 0 0 0 0 0 -0 -0 -0 -0 -0 -0 -0 -0 -0 -0 0 -0 0 -0 0 0 0 -0 -0 0
1 0 0 0 0 0 0 0 0 0 0 0 0 0 -0 -0 -0 -0 -0 0 -0 -0 0 0 -0 -0 -0 -0 -0 -0 -0 -0 -0 0 -0 -0 -0 -0 -0 0 -0 -0 0 0 -0 -0 -0 0 -0
0 0 -0 0 0 0 0 0 0 0 0 0 -0 -0 -0 -0 -0 -0 -0 -0 -0 -0 -0 0 0 -0 0 -0 -0 -0 -0 -0 -0 0 -0 0 -0 -0 -0 0 0 -0 0 -0 0 -0 -0 -0 -0
0 0 0 0 0 0 0 0 0 0 0 0 -0 -0 -0 -0 -0 -0 -0 -0 -0 0 -0 0 -0 -0 -0 -0 -0 -0 -0 0 -0 0 -0 -0 0 0 0 0 0 0 -0 0 0 -0 -0 0 -0
-0 0 -0 0 0 0 0 0 0 0 0 0 -0 -0 -0 -0 -0 -0 -0 -0 -0 -0 -0 0 0 0 0 0 0 0 -0 -0 -0 0 -0 -0 -0 0 -0 0 0 0 -0 0 0 -0 -0 -0 -0
-0 0 -0 -0 -0 0 0 0 0 0 0 0 -0 -0 -0 -0 -0 -0 -0 -0 -0 -0 -0 -0 -0 -0 -0 -0 -0 0 0 -0 -0 -0 -0 -0 -0 -0 0 0 0 0 0 0 -0 0 -0 -0 -0
-0 0 0 -0 0 -0 -0 0 1 0 0 0 0 0 -0 -0 -0 -0 -0 -0 -0 0 -0 -0 -0 -0 -0 -0 -0 -0 -0 -0 -0 -0 -0 -0 -0 -0 -0 -0 0 -0 0 -0 0 -0 0 0 0
-0 0 0 -0 -0 0 0 -0 0 0 0 0 0 0 -0 -0 -0 -0 -0 -0 -0 0 -0 -0 -0 -0 -0 -0 0 0 0 0 0 -0 0 -0 -0 -0 -0 -0 -0 -0 0 0 0 0 -0 -0 0
-0 0 0 -0 0 0 0 0 0 0 0 0 0 0 0 -0 -0 -0 -0 -0 -0 -0 -0 -0 -0 0 -0 -0 0 0 0 -0 0 -0 0 0 -0 -0 -0 -0 -0 -0 0 0 0 0 0 0 0
0 0 0 -0 0 -0 0 -0 -0 0 0 0 0 0 0 0 -0 -0 -0 -0 -0 -0 -0 -0 -0 -0 -0 -0 0 0 0 0 0 0 -0 -0 -0 -0 0 0 0 -0 -0 0 0 0 0 0 0
0 0 0 -0 0 0 0 0 -0 0 0 -0 0 0 0 -0 0 -0 -0 -0 -0 -0 -0 -0 -0 -0 0 0 0 0 0 0 -0 -0 0 -0 -0 0 -0 0 -0 -0 -0 0 0 0 0 0 -0
-0 0 0 0 0 0 -0 -0 -0 -0 0 -0 -0 -0 -0 -0 -0 -0 0 0 -0 -0 -0 0 -0 0 0 0 0 0 -0 -0 -0 -0 0 -0 0 0 -0 0 -0 -0 0 0 0 0 -0 -0 0
0 -0 0 0 0 0 0 0 -0 0 0 0 -0 0 -0 -0 -0 -0 -0 -0 0 -0 -0 -0 -0 -0 0 0 0 0 -0 -0 -0 0 0 0 -0 -0 -0 -0 -0 0 -0 -0 0 0 0 0 -0
0 -0 0 0 0 0 0 0 0 0 0 0 -0 -0 -0 -0 -0 -0 -0 -0 -0 -0 -0 -0 -0 -0 0 0 0 0 0 0 0 0 0 0 0 -0 -0 -0 -0 -0 -0 -0 0 0 0 0 0
-0 -0 -0 -0 0 0 0 0 0 0 0 0 -0 -0 -0 0 -0 -0 -0 -0 -0 -0 -0 -0 -0 -0 -0 0 0 0 0 0 0 0 0 0 0 -0 -0 -0 -0 -0 -0 -0 -0 -0 0 0 0
0 0 0 0 0 0 0 0 0 0 -0 -0 -0 0 0 0 -0 -0 -0 -0 -0 -1 -0 -0 -0 -0 -0 -0 -0 -0 -0 -0 0 0 0 0 -0 -0 -0 -0 -0 -0 -0 0 0 0 -0 0 -0
0 0 0 0 0 0 0 0 0 -0 -0 -0 -0 -0 0 0 -0 -0 -0 -0 -0 -1 -1 -1 -1 -0 -0 -0 -0 -0 -0 -0 -0 -0 -0 0 0 -0 -0 0 -0 -0 -0 -0 -0 -0 -0 0 0
0 0 0 0 0 0 -0 0 0 0 -0 -0 0 -0 0 -0 -0 -0 -0 -0 -1 -1 -1 -1 -1 -1 -1 -1 -1 -0 -0 -0 -0 -0 -0 -0 -0 -0 0 -0 -0 -0 -0 -0 -0 0 0 0 0
0 0 0 0 0 0 -0 0 -0 -0 -0 -0 -0 -0 0 0 0 -0 -1 -0 -1 -1 -1 -1 -1 -1 -1 -1 -1 -1 -0 -0 -0 -0 -0 -0 -0 0 -0 -0 -0 -0 -0 -0 -0 0 0 0 0
0 0 0 0 0 0 0 -0 -0 0 -0 0 0 -0 0 -0 0 0 -0 -1 -1 -2 -1 -1 -1 -1 -1 -0 -0 -1 -1 -0 -0 -0 -0 0 0 -0 -0 -0 -0 -0 -0 0 0 0 0 0 0
0 0 0 0 -0 0 0 0 0 -0 0 0 -0 0 0 0 -0 -0 -0 -1 -1 -1 -1 -2 -1 -1 -0 -0 -0 -1 -1 -0 -0 -0 -0 0 0 -0 -0 -0 -0 -0 -0 0 0 0 0 0 0
0 0 0 0 0 0 0 0 0 -0 0 -0 0 0 -0 -0 0 0 -0 -1 -1 -2 -1 -1 -1 -1 -1 -1 -0 -1 -1 -1 -1 -0 -0 -0 -0 -0 -0 -0 -0 -0 0 0 0 0 0 0 0
Wind_Speed_500mb
7 5 5 8 5 7 4 9 13 21 12 7 32 16 16 12 5 7 51 48 45 42 42 41 43 41 43 44 42 41 38 36 31 29 29 27 25 22 17 14 16 14 12 10 11 10 17 24 25
19 10 8 10 7 5 5 9 12 7 16 32 30 42 18 6 22 51 57 53 43 42 42 41 41 39 37 36 34 32 28 26 24 24 24 23 21 17 16 14 11 10 7 8 10 14 21 24 25
19 6 8 3 5 5 8 5 16 24 40 17 12 13 10 27 52 73 61 50 49 44 40 40 40 39 38 35 32 28 22 19 20 21 22 18 17 16 16 14 9 9 8 13 16 16 23 27 29
17 7 12 3 8 4 8 16 32 27 24 17 33 15 14 36 68 61 57 51 45 44 38 42 43 41 37 30 26 25 20 16 16 17 18 18 15 16 15 11 8 12 14 16 19 21 26 29 26
3 7 4 7 6 7 17 35 29 21 13 31 23 12 23 52 53 64 59 49 45 39 36 37 40 37 31 29 25 21 19 17 16 17 19 18 16 14 12 11 11 14 16 16 20 22 26 26 24
5 9 6 8 10 13 15 34 31 20 30 38 35 34 15 42 55 52 44 42 39 40 37 35 38 35 29 26 23 20 18 20 20 19 19 17 15 13 13 14 15 14 15 14 18 19 23 26 27
8 5 4 12 14 11 16 23 19 40 35 23 65 18 35 56 51 50 44 38 34 30 35 36 34 32 28 25 20 18 17 18 19 18 18 15 14 13 14 14 13 14 12 14 16 20 23 23 24
10 5 7 10 17 5 24 24 32 45 34 66 54 15 31 66 51 46 39 32 28 28 35 35 35 32 27 22 19 20 17 14 17 16 19 18 13 11 12 14 14 15 14 16 16 19 23 21 25
3 3 5 10 11 11 40 23 42 33 51 34 46 44 68 70 60 51 47 41 37 31 33 33 28 27 24 21 20 16 16 16 14 15 16 17 11 9 13 14 13 15 16 16 17 21 23 25 27
6 5 12 13 12 20 33 44 50 28 42 15 24 44 74 72 67 61 67 63 44 38 38 33 31 29 28 26 20 17 15 14 12 13 14 11 11 9 12 14 15 17 19 20 21 23 23 25 24
18 11 8 6 19 26 32 46 50 41 25 41 61 81 78 75 64 70 67 55 45 36 37 35 34 27 25 31 16 16 16 14 10 4 10 10 15 11 8 6 9 12 24 16 19 20 22 20 15
10 30 31 15 3 30 20 39 30 55 30 60 60 85 87 78 73 74 61 61 54 44 34 35 33 27 29 22 15 15 10 10 13 2 7 7 6 12 11 7 2 14 21 18 16 16 18 19 15
16 16 33 34 17 18 30 23 27 42 33 67 68 81 84 78 74 63 55 53 53 46 37 39 36 29 26 22 22 17 12 10 12 14 5 10 11 13 18 12 11 17 23 23 18 16 15 19 14
15 23 26 45 20 22 12 4 25 26 69 76 77 81 81 75 69 66 59 53 52 55 54 44 38 33 21 33 27 23 12 15 17 17 16 20 17 17 20 19 18 20 14 18 12 11 11 10 12
27 8 13 9 13 7 25 8 6 56 82 78 77 80 78 70 72 69 70 64 57 63 63 58 47 47 42 37 33 28 18 20 22 18 23 20 16 19 26 26 21 16 15 14 13 14 12 14 18
4 9 4 13 13 8 17 15 24 50 68 67 73 74 78 71 75 73 66 64 56 65 63 58 44 47 46 39 41 34 28 31 28 27 20 11 16 11 19 30 27 22 20 17 12 15 17 17 19
9 6 9 7 19 12 8 11 51 25 57 62 67 71 77 72 70 72 77 69 68 63 55 61 55 53 45 42 47 42 38 34 28 24 23 16 12 1 7 17 24 22 18 14 12 12 13 9 12
11 8 8 6 9 22 13 16 34 49 57 61 66 69 71 76 77 72 78 70 72 63 61 60 60 51 49 50 33 37 41 38 30 27 13 21 8 3 8 15 18 15 10 11 12 10 7 8 8
11 8 11 5 13 6 14 21 30 52 41 53 60 67 73 81 65 69 69 67 71 68 63 64 59 54 58 49 37 30 39 35 33 27 21 16 8 6 12 15 15 17 16 11 8 4 5 3 7
13 9 7 5 13 4 20 17 22 31 37 67 71 71 74 81 72 66 73 72 67 77 68 58 63 54 55 48 35 21 24 29 26 25 25 19 15 15 18 16 15 18 15 11 7 4 6 4 3
12 17 17 14 15 12 8 7 10 15 21 52 63 73 74 83 81 70 78 79 69 77 78 62 72 59 57 45 34 24 29 32 33 39 36 28 22 22 18 18 15 13 13 11 11 11 10 9 6
13 32 25 24 9 9 11 9 13 3 6 16 48 55 67 81 82 78 84 82 74 71 75 66 67 60 51 47 40 34 31 38 38 30 27 24 24 19 21 20 18 16 15 13 14 14 11 10 9
21 21 26 32 15 7 9 10 11 11 13 20 40 52 74 94 90 87 88 88 82 68 74 69 63 61 52 53 44 36 31 31 30 33 29 29 27 26 26 21 21 17 15 15 16 17 13 12 13
6 10 14 9 7 8 14 8 9 15 35 39 35 44 60 64 85 89 89 87 85 72 72 71 69 65 57 54 47 42 38 33 35 35 35 35 35 32 27 24 21 19 17 16 16 16 12 14 15
14 14 7 10 11 10 9 4 21 34 41 45 46 65 62 46 84 91 92 95 88 82 79 75 75 70 61 57 52 46 44 43 41 34 34 36 42 42 36 31 27 22 19 17 18 18 19 19 17
10 16 11 4 3 13 8 7 13 20 31 54 54 27 46 61 58 95 98 99 95 88 84 81 78 73 68 59 54 52 51 47 44 36 31 26 27 30 38 34 25 20 20 20 21 22 22 20 19
7 2 13 13 5 7 7 13 19 16 5 7 14 19 23 39 53 86 96 100 100 91 91 88 83 78 69 63 59 57 58 52 50 42 36 28 23 22 27 24 22 24 24 24 24 23 25 23 22
6 5 5 8 5 2 12 9 9 3 19 11 17 31 21 23 37 54 81 98 103 94 91 90 85 78 66 62 62 60 61 60 54 47 42 36 36 33 34 30 28 28 27 25 27 27 27 24 22
15 17 11 11 8 10 3 12 13 22 15 18 9 40 24 32 29 51 65 96 104 98 96 90 89 85 72 62 60 64 62 63 61 56 48 44 41 41 42 38 35 32 31 30 30 31 30 24 19
6 3 8 9 13 2 8 11 10 31 16 35 31 62 54 67 69 75 68 81 100 105 103 98 94 92 79 60 58 60 59 63 66 65 56 49 48 46 45 44 42 37 32 30 31 31 29 25 22
Wind_Direction_500mb
140 167 266 270 341 66 16 53 118 129 150 168 144 163 157 110 155 167 146 148 141 139 136 136 133 134 131 131 132 134 134 134 136 134 139 144 148 149 151 122 112 116 123 123 120 119 111 112 119
157 148 220 276 80 72 16 145 152 184 130 125 112 124 123 122 142 137 150 149 146 145 145 145 141 139 136 133 132 130 128 136 138 139 147 147 147 147 141 132 117 110 121 146 138 124 126 117 125
157 204 283 245 112 108 143 162 125 125 141 151 121 113 106 136 140 139 149 152 151 149 149 150 145 147 140 138 136 133 135 143 148 156 160 159 149 153 149 148 131 124 130 138 138 137 136 126 123
172 200 251 55 124 93 124 157 147 156 184 184 120 77 90 147 138 145 152 156 154 148 155 157 155 151 147 147 146 142 144 150 155 168 170 165 160 157 155 155 146 136 140 138 134 133 138 135 129
154 216 270 68 69 100 143 157 168 163 126 115 123 92 112 152 146 147 148 154 157 147 158 161 160 158 159 154 154 150 150 155 154 155 157 158 167 161 164 162 160 144 139 138 138 133 138 144 138
312 306 65 133 135 136 154 164 184 161 114 109 104 112 137 151 149 147 153 152 153 153 160 165 157 157 160 161 161 154 155 156 161 157 159 169 171 171 166 165 160 153 149 144 143 141 136 137 144
126 58 295 116 154 177 184 181 171 147 139 138 132 120 153 163 156 156 151 146 150 159 170 171 167 162 171 168 162 158 157 153 142 156 163 163 161 159 169 171 164 166 160 162 148 143 136 132 137
97 91 297 142 193 184 175 172 176 167 156 141 146 168 174 173 164 159 164 162 161 180 179 181 174 171 169 158 162 158 145 146 150 160 158 154 148 158 170 173 176 182 168 163 152 143 136 132 136
33 64 222 170 152 137 160 187 185 191 142 170 184 171 163 156 165 174 180 182 185 183 179 179 178 169 170 156 152 145 151 157 159 158 153 154 148 141 163 170 181 193 188 169 152 152 148 141 142
206 336 231 180 157 148 182 160 175 156 166 172 158 158 153 156 172 183 185 181 181 176 179 180 177 174 168 147 128 137 147 141 155 153 177 141 146 148 150 161 185 204 195 180 159 155 157 153 154
343 345 295 46 145 153 142 155 174 158 186 175 153 158 163 168 173 174 177 183 179 168 165 170 173 172 168 147 118 153 150 146 150 190 176 155 163 163 190 198 221 222 196 193 178 164 156 159 157
155 309 17 336 349 149 167 172 167 171 192 182 173 166 167 176 178 181 186 191 188 182 181 180 175 178 163 175 154 165 162 179 165 129 193 198 202 213 201 219 172 181 183 190 180 180 189 190 199
85 16 307 312 57 13 188 195 181 199 181 179 165 165 171 176 179 188 193 189 190 190 194 192 193 201 198 184 178 191 192 195 182 203 225 240 232 244 227 222 211 180 179 181 195 188 185 202 217
160 157 258 296 321 341 332 203 142 158 159 156 163 167 171 176 181 188 192 198 196 191 199 197 206 205 228 201 189 199 205 198 218 221 207 228 239 248 248 247 229 200 208 201 213 231 234 252 244
137 133 319 317 316 320 355 297 101 152 156 156 162 171 175 182 187 193 200 207 205 199 203 208 215 219 219 210 201 199 201 239 223 242 226 231 242 247 248 249 237 222 238 221 225 242 257 254 263
74 110 103 271 297 276 71 345 347 159 159 164 168 175 180 190 195 202 205 204 197 198 202 209 215 207 213 219 209 210 203 226 227 230 219 254 242 254 228 231 235 229 222 224 231 246 265 269 261
18 118 232 299 235 251 101 79 266 224 178 171 176 180 187 194 201 208 212 213 206 203 203 207 210 205 212 209 219 224 221 220 229 238 227 215 194 179 198 210 220 229 223 221 231 236 241 229 220
208 213 209 7 276 191 164 190 209 253 190 182 181 186 192 199 204 212 214 211 208 208 205 203 205 206 209 206 206 215 224 223 240 219 222 212 196 161 169 190 199 200 197 204 201 202 184 177 203
182 180 118 246 255 211 246 226 203 237 190 191 187 188 193 201 203 206 207 208 209 205 202 204 204 206 204 203 204 218 214 225 238 222 218 210 227 216 190 168 168 163 169 184 199 206 193 212 248
171 138 187 238 260 194 286 271 222 205 192 189 190 195 196 199 203 206 205 207 208 203 204 207 206 206 205 215 228 233 219 219 210 213 227 221 233 240 206 189 171 169 178 198 206 220 240 214 232
214 188 192 216 210 252 174 355 279 204 202 198 199 196 197 200 201 201 201 204 207 204 203 208 211 219 217 218 212 214 209 206 201 209 215 216 229 229 216 207 210 205 202 223 220 229 220 221 215
219 223 211 253 160 228 124 234 260 154 215 187 208 201 200 204 206 200 197 202 207 208 210 203 207 209 215 210 208 206 209 202 209 226 199 206 209 203 196 208 216 217 221 222 224 220 220 214 224
226 246 230 241 197 119 343 88 264 86 238 224 223 203 200 205 202 201 200 201 208 208 207 204 205 207 208 209 214 212 215 214 211 205 203 216 211 200 204 209 216 214 219 225 224 223 234 257 246
243 26 22 52 74 22 254 124 255 196 210 219 218 223 210 205 203 206 203 201 204 205 205 206 205 206 209 210 215 216 216 212 213 209 216 223 212 204 209 219 216 225 237 240 241 251 255 267 261
74 57 358 4 12 224 3 120 239 216 210 206 216 229 214 203 203 206 197 197 203 202 205 207 207 209 212 214 218 218 217 219 220 213 214 217 216 226 223 222 226 240 242 248 251 255 269 269 266
200 138 148 201 258 268 321 306 275 297 219 198 222 235 218 210 206 204 205 201 202 204 207 209 211 214 213 215 220 220 219 216 219 219 217 219 218 227 220 217 231 246 247 253 252 259 264 268 275
249 149 187 120 40 48 286 310 320 28 329 231 250 248 209 229 214 202 205 205 202 204 209 213 216 217 218 218 219 221 219 218 220 220 220 222 202 189 197 215 227 242 248 257 263 259 264 275 293
358 182 43 11 136 261 294 297 242 223 217 220 222 236 193 208 201 204 198 200 207 209 210 213 218 218 217 215 217 221 221 220 220 222 220 215 210 211 217 230 238 246 250 264 264 262 266 278 288
352 23 23 113 118 164 206 300 231 250 210 171 218 157 158 168 229 217 212 206 209 211 212 213 217 217 215 212 215 220 222 222 222 222 219 217 219 223 226 234 241 249 255 262 262 260 263 277 278
159 54 109 91 307 30 152 271 357 332 168 177 176 149 168 160 206 233 227 216 208 212 213 216 218 216 215 210 211 217 222 222 223 224 222 221 224 222 228 236 240 245 251 254 256 255 259 267 269
Wind_Speed_850mb
7 5 5 8 5 7 4 9 13 21 12 7 32 16 16 12 5 7 51 48 45 42 42 41 43 41 43 44 42 41 38 36 31 29 29 27 25 22 17 14 16 14 12 10 11 10 17 24 25
19 10 8 10 7 5 5 9 12 7 16 32 30 42 18 6 22 51 57 53 43 42 42 41 41 39 37 36 34 32 28 26 24 24 24 23 21 17 16 14 11 10 7 8 10 14 21 24 25
19 6 8 3 5 5 8 5 16 24 40 17 12 13 10 27 52 73 61 50 49 44 40 40 40 39 38 35 32 28 22 19 20 21 22 18 17 16 16 14 9 9 8 13 16 16 23 27 29
17 7 12 3 8 4 8 16 32 27 24 17 33 15 14 36 68 61 57 51 45 44 38 42 43 41 37 30 26 25 20 16 16 17 18 18 15 16 15 11 8 12 14 16 19 21 26 29 26
3 7 4 7 6 7 17 35 29 21 13 31 23 12 23 52 53 64 59 49 45 39 36 37 40 37 31 29 25 21 19 17 16 17 19 18 16 14 12 11 11 14 16 16 20 22 26 26 24
5 9 6 8 10 13 15 34 31 20 30 38 35 34 15 42 55 52 44 42 39 40 37 35 38 35 29 26 23 20 18 20 20 19 19 17 15 13 13 14 15 14 15 14 18 19 23 26 27
8 5 4 12 14 11 16 23 19 40 35 23 65 18 35 56 51 50 44 38 34 30 35 36 34 32 28 25 20 18 17 18 19 18 18 15 14 13 14 14 13 14 12 14 16 20 23 23 24
10 5 7 10 17 5 24 24 32 45 34 66 54 15 31 66 51 46 39 32 28 28 35 35 35 32 27 22 19 20 17 14 17 16 19 18 13 11 12 14 14 15 14 16 16 19 23 21 25
3 3 5 10 11 11 40 23 42 33 51 34 46 44 68 70 60 51 47 41 37 31 33 33 28 27 24 21 20 16 16 16 14 15 16 17 11 9 13 14 13 15 16 16 17 21 23 25 27
6 5 12 13 12 20 33 44 50 28 42 15 24 44 74 72 67 61 67 63 44 38 38 33 31 29 28 26 20 17 15 14 12 13 14 11 11 9 12 14 15 17 19 20 21 23 23 25 24
18 11 8 6 19 26 32 46 50 41 25 41 61 81 78 75 64 70 67 55 45 36 37 35 34 27 25 31 16 16 16 14 10 4 10 10 15 11 8 6 9 12 24 16 19 20 22 20 15
10 30 31 15 3 30 20 39 30 55 30 60 60 85 87 78 73 74 61 61 54 44 34 35 33 27 29 22 15 15 10 10 13 2 7 7 6 12 11 7 2 14 21 18 16 16 18 19 15
16 16 33 34 17 18 30 23 27 42 33 67 68 81 84 78 74 63 55 53 53 46 37 39 36 29 26 22 22 17 12 10 12 14 5 10 11 13 18 12 11 17 23 23 18 16 15 19 14
15 23 26 45 20 22 12 4 25 26 69 76 77 81 81 75 69 66 59 53 52 55 54 44 38 33 21 33 27 23 12 15 17 17 16 20 17 17 20 19 18 20 14 18 12 11 11 10 12
27 8 13 9 13 7 25 8 6 56 82 78 77 80 78 70 72 69 70 64 57 63 63 58 47 47 42 37 33 28 18 20 22 18 23 20 16 19 26 26 21 16 15 14 13 14 12 14 18
4 9 4 13 13 8 17 15 24 50 68 67 73 74 78 71 75 73 66 64 56 65 63 58 44 47 46 39 41 34 28 31 28 27 20 11 16 11 19 30 27 22 20 17 12 15 17 17 19
9 6 9 7 19 12 8 11 51 25 57 62 67 71 77 72 70 72 77 69 68 63 55 61 55 53 45 42 47 42 38 34 28 24 23 16 12 1 7 17 24 22 18 14 12 12 13 9 12
11 8 8 6 9 22 13 16 34 49 57 61 66 69 71 76 77 72 78 70 72 63 61 60 60 51 49 50 33 37 41 38 30 27 13 21 8 3 8 15 18 15 10 11 12 10 7 8 8
11 8 11 5 13 6 14 21 30 52 41 53 60 67 73 81 65 69 69 67 71 68 63 64 59 54 58 49 37 30 39 35 33 27 21 16 8 6 12 15 15 17 16 11 8 4 5 3 7
13 9 7 5 13 4 20 17 22 31 37 67 71 71 74 81 72 66 73 72 67 77 68 58 63 54 55 48 35 21 24 29 26 25 25 19 15 15 18 16 15 18 15 11 7 4 6 4 3
12 17 17 14 15 12 8 7 10 15 21 52 63 73 74 83 81 70 78 79 69 77 78 62 72 59 57 45 34 24 29 32 33 39 36 28 22 22 18 18 15 13 13 11 11 11 10 9 6
13 32 25 24 9 9 11 9 13 3 6 16 48 55 67 81 82 78 84 82 74 71 75 66 67 60 51 47 40 34 31 38 38 30 27 24 24 19 21 20 18 16 15 13 14 14 11 10 9
21 21 26 32 15 7 9 10 11 11 13 20 40 52 74 94 90 87 88 88 82 68 74 69 63 61 52 53 44 36 31 31 30 33 29 29 27 26 26 21 21 17 15 15 16 17 13 12 13
6 10 14 9 7 8 14 8 9 15 35 39 35 44 60 64 85 89 89 87 85 72 72 71 69 65 57 54 47 42 38 33 35 35 35 35 35 32 27 24 21 19 17 16 16 16 12 14 15
14 14 7 10 11 10 9 4 21 34 41 45 46 65 62 46 84 91 92 95 88 82 79 75 75 70 61 57 52 46 44 43 41 34 34 36 42 42 36 31 27 22 19 17 18 18 19 19 17
10 16 11 4 3 13 8 7 13 20 31 54 54 27 46 61 58 95 98 99 95 88 84 81 78 73 68 59 54 52 51 47 44 36 31 26 27 30 38 34 25 20 20 20 21 22 22 20 19
7 2 13 13 5 7 7 13 19 16 5 7 14 19 23 39 53 86 96 100 100 91 91 88 83 78 69 63 59 57 58 52 50 42 36 28 23 22 27 24 22 24 24 24 24 23 25 23 22
6 5 5 8 5 2 12 9 9 3 19 11 17 31 21 23 37 54 81 98 103 94 91 90 85 78 66 62 62 60 61 60 54 47 42 36 36 33 34 30 28 28 27 25 27 27 27 24 22
15 17 11 11 8 10 3 12 13 22 15 18 9 40 24 32 29 51 65 96 104 98 96 90 89 85 72 62 60 64 62 63 61 56 48 44 41 41 42 38 35 32 31 30 30 31 30 24 19
6 3 8 9 13 2 8 11 10 31 16 35 31 62 54 67 69 75 68 81 100 105 103 98 94 92 79 60 58 60 59 63 66 65 56 49 48 46 45 44 42 37 32 30 31 31 29 25 22
Wind_Direction_850mb
140 167 266 270 341 66 16 53 118 129 150 168 144 163 157 110 155 167 146 148 141 139 136 136 133 134 131 131 132 134 134 134 136 134 139 144 148 149 151 122 112 116 123 123 120 119 111 112 119
157 148 220 276 80 72 16 145 152 184 130 125 112 124 123 122 142 137 150 149 146 145 145 145 141 139 136 133 132 130 128 136 138 139 147 147 147 147 141 132 117 110 121 146 138 124 126 117 125
157 204 283 245 112 108 143 162 125 125 141 151 121 113 106 136 140 139 149 152 151 149 149 150 145 147 140 138 136 133 135 143 148 156 160 159 149 153 149 148 131 124 130 138 138 137 136 126 123
172 200 251 55 124 93 124 157 147 156 184 184 120 77 90 147 138 145 152 156 154 148 155 157 155 151 147 147 146 142 144 150 155 168 170 165 160 157 155 155 146 136 140 138 134 133 138 135 129
154 216 270 68 69 100 143 157 168 163 126 115 123 92 112 152 146 147 148 154 157 147 158 161 160 158 159 154 154 150 150 155 154 155 157 158 167 161 164 162 160 144 139 138 138 133 138 144 138
312 306 65 133 135 136 154 164 184 161 114 109 104 112 137 151 149 147 153 152 153 153 160 165 157 157 160 161 161 154 155 156 161 157 159 169 171 171 166 165 160 153 149 144 143 141 136 137 144
126 58 295 116 154 177 184 181 171 147 139 138 132 120 153 163 156 156 151 146 150 159 170 171 167 162 171 168 162 158 157 153 142 156 163 163 161 159 169 171 164 166 160 162 148 143 136 132 137
97 91 297 142 193 184 175 172 176 167 156 141 146 168 174 173 164 159 164 162 161 180 179 181 174 171 169 158 162 158 145 146 150 160 158 154 148 158 170 173 176 182 168 163 152 143 136 132 136
33 64 222 170 152 137 160 187 185 191 142 170 184 171 163 156 165 174 180 182 185 183 179 179 178 169 170 156 152 145 151 157 159 158 153 154 148 141 163 170 181 193 188 169 152 152 148 141 142
206 336 231 180 157 148 182 160 175 156 166 172 158 158 153 156 172 183 185 181 181 176 179 180 177 174 168 147 128 137 147 141 155 153 177 141 146 148 150 161 185 204 195 180 159 155 157 153 154
343 345 295 46 145 153 142 155 174 158 186 175 153 158 163 168 173 174 177 183 179 168 165 170 173 172 168 147 118 153 150 146 150 190 176 155 163 163 190 198 221 222 196 193 178 164 156 159 157
155 309 17 336 349 149 167 172 167 171 192 182 173 166 167 176 178 181 186 191 188 182 181 180 175 178 163 175 154 165 162 179 165 129 193 198 202 213 201 219 172 181 183 190 180 180 189 190 199
85 16 307 312 57 13 188 195 181 199 181 179 165 165 171 176 179 188 193 189 190 190 194 192 193 201 198 184 178 191 192 195 182 203 225 240 232 244 227 222 211 180 179 181 195 188 185 202 217
160 157 258 296 321 341 332 203 142 158 159 156 163 167 171 176 181 188 192 198 196 191 199 197 206 205 228 201 189 199 205 198 218 221 207 228 239 248 248 247 229 200 208 201 213 231 234 252 244
137 133 319 317 316 320 355 297 101 152 156 156 162 171 175 182 187 193 200 207 205 199 203 208 215 219 219 210 201 199 201 239 223 242 226 231 242 247 248 249 237 222 238 221 225 242 257 254 263
74 110 103 271 297 276 71 345 347 159 159 164 168 175 180 190 195 202 205 204 197 198 202 209 215 207 213 219 209 210 203 226 227 230 219 254 242 254 228 231 235 229 222 224 231 246 265 269 261
18 118 232 299 235 251 101 79 266 224 178 171 176 180 187 194 201 208 212 213 206 203 203 207 210 205 212 209 219 224 221 220 229 238 227 215 194 179 198 210 220 229 223 221 231 236 241 229 220
208 213 209 7 276 191 164 190 209 253 190 182 181 186 192 199 204 212 214 211 208 208 205 203 205 206 209 206 206 215 224 223 240 219 222 212 196 161 169 190 199 200 197 204 201 202 184 177 203
182 180 118 246 255 211 246 226 203 237 190 191 187 188 193 201 203 206 207 208 209 205 202 204 204 206 204 203 204 218 214 225 238 222 218 210 227 216 190 168 168 163 169 184 199 206 193 212 248
171 138 187 238 260 194 286 271 222 205 192 189 190 195 196 199 203 206 205 207 208 203 204 207 206 206 205 215 228 233 219 219 210 213 227 221 233 240 206 189 171 169 178 198 206 220 240 214 232
214 188 192 216 210 252 174 355 279 204 202 198 199 196 197 200 201 201 201 204 207 204 203 208 211 219 217 218 212 214 209 206 201 209 215 216 229 229 216 207 210 205 202 223 220 229 220 221 215
219 223 211 253 160 228 124 234 260 154 215 187 208 201 200 204 206 200 197 202 207 208 210 203 207 209 215 210 208 206 209 202 209 226 199 206 209 203 196 208 216 217 221 222 224 220 220 214 224
226 246 230 241 197 119 343 88 264 86 238 224 223 203 200 205 202 201 200 201 208 208 207 204 205 207 208 209 214 212 215 214 211 205 203 216 211 200 204 209 216 214 219 225 224 223 234 257 246
243 26 22 52 74 22 254 124 255 196 210 219 218 223 210 205 203 206 203 201 204 205 205 206 205 206 209 210 215 216 216 212 213 209 216 223 212 204 209 219 216 225 237 240 241 251 255 267 261
74 57 358 4 12 224 3 120 239 216 210 206 216 229 214 203 203 206 197 197 203 202 205 207 207 209 212 214 218 218 217 219 220 213 214 217 216 226 223 222 226 240 242 248 251 255 269 269 266
200 138 148 201 258 268 321 306 275 297 219 198 222 235 218 210 206 204 205 201 202 204 207 209 211 214 213 215 220 220 219 216 219 219 217 219 218 227 220 217 231 246 247 253 252 259 264 268 275
249 149 187 120 40 48 286 310 320 28 329 231 250 248 209 229 214 202 205 205 202 204 209 213 216 217 218 218 219 221 219 218 220 220 220 222 202 189 197 215 227 242 248 257 263 259 264 275 293
358 182 43 11 136 261 294 297 242 223 217 220 222 236 193 208 201 204 198 200 207 209 210 213 218 218 217 215 217 221 221 220 220 222 220 215 210 211 217 230 238 246 250 264 264 262 266 278 288
352 23 23 113 118 164 206 300 231 250 210 171 218 157 158 168 229 217 212 206 209 211 212 213 217 217 215 212 215 220 222 222 222 222 219 217 219 223 226 234 241 249 255 262 262 260 263 277 278
159 54 109 91 307 30 152 271 357 332 168 177 176 149 168 160 206 233 227 216 208 212 213 216 218 216 215 210 211 217 222 222 223 224 222 221 224 222 228 236 240 245 251 254 256 255 259 267 269